• MPC Preparation (Info)

  • MPEC 2013-U03 : 2013 TV135

    The following Minor Planet Electronic Circular may be linked-to from your own Web pages, but must not otherwise be redistributed electronically.

    A form allowing access to any MPEC is at the bottom of this page.


    Read MPEC 2013-U02 Read MPEC 2013-U04


    M.P.E.C. 2013-U03                                Issued 2013 Oct. 16, 10:50 UT
    
         The Minor Planet Electronic Circulars contain information on unusual
             minor planets and routine data on comets.  They are published
       on behalf of Commission 20 of the International Astronomical Union by the
              Minor Planet Center, Smithsonian Astrophysical Observatory,
                              Cambridge, MA 02138, U.S.A.
    
                 Prepared using the Tamkin Foundation Computer Network
    
                                  MPC@CFA.HARVARD.EDU
                URL https://www.minorplanetcenter.net/    ISSN 1523-6714
    
                                      2013 TV135
    
    Observations:
         K13TD5V 4C2013 10 08.85531 06 08 12.51 +71 29 09.1          16.9 RqEU003095
         K13TD5V 4C2013 10 08.88171 06 08 05.51 +71 27 51.4          16.7 RqEU003095
         K13TD5V*4C2013 10 12.95510 05 54 28.09 +68 13 21.7          18.0 RqEU003095
         K13TD5V 4C2013 10 13.01166 05 54 16.27 +68 11 05.3          18.0 RqEU003095
         K13TD5V 4C2013 10 13.07218 05 54 03.89 +68 08 41.1          18.2 RqEU003095
         K13TD5V  C2013 10 15.68270 05 47 36.48 +66 25 03.9          17.4 RoEU003C94
         K13TD5V  C2013 10 15.68733 05 47 35.88 +66 24 54.1          17.5 RoEU003C94
         K13TD5V  C2013 10 15.70462 05 47 33.07 +66 24 20.3          17.2 RoEU003C94
         K13TD5V KC2013 10 15.87204 05 47 10.86 +66 18 14.7          17.4 RvEU003C32
         K13TD5V KC2013 10 15.87573 05 47 10.09 +66 18 07.3          17.2 RvEU003C32
         K13TD5V KC2013 10 15.87940 05 47 09.61 +66 17 59.9          17.5 RvEU003C32
         K13TD5V KC2013 10 15.88309 05 47 08.99 +66 17 52.9          17.8 RvEU003C32
         K13TD5V  C2013 10 15.92157 05 47 04.17 +66 16 15.4          16.9 RcEU003A24
         K13TD5V  C2013 10 15.92229 05 47 04.05 +66 16 14.0          17.2 RcEU003A24
         K13TD5V  C2013 10 15.92301 05 47 03.90 +66 16 12.6          17.0 RcEU003A24
         K13TD5V KC2013 10 15.92696 05 47 02.63 +66 15 56.5                qEU003J95
         K13TD5V  C2013 10 15.92987 05 47 02.90 +66 15 58.7          17.1 RcEU003A24
         K13TD5V KC2013 10 15.93387 05 47 01.74 +66 15 42.1                qEU003J95
         K13TD5V KC2013 10 15.94004 05 47 00.90 +66 15 30.1          17.5 RqEU003J95
         K13TD5V KC2013 10 15.95898 05 46 58.70 +66 15 01.1          17.4 VqEU003C77
         K13TD5V KC2013 10 15.96146 05 46 58.29 +66 14 56.3          17.3 VqEU003C77
         K13TD5V KC2013 10 15.96543 05 46 57.72 +66 14 48.6          17.5 VqEU003C77
         K13TD5V KC2013 10 15.96990 05 46 57.01 +66 14 40.0          17.8 VqEU003C77
         K13TD5V KC2013 10 16.10674 05 46 34.75 +66 10 03.8          18.4 RuEU003B49
         K13TD5V KC2013 10 16.10878 05 46 34.24 +66 09 59.7          18.1 RuEU003B49
         K13TD5V KC2013 10 16.11248 05 46 33.38 +66 09 52.1          17.4 RuEU003B49
    
    Observer details:
    095 Crimea-Nauchnij.  Observer G. Borisov.  Measurer T. Kryachko.  0.2-m f/1.5
        astrograph + CCD.
    A24 New Millennium Observatory, Mozzate.  Observer E. Cozzi.  0.36-m f/11
        Schmidt-Cassegrain + CCD.
    B49 Paus Observatory, Sabadell.  Observer J. Camarasa.  0.30-m f/4 Newtonian
        reflector + CCD.
    C32 Ka-Dar Observatory, TAU Station, Nizhny Arkhyz.  Observer V. Gerke.
        Measurer A. Novichonok.  0.40-m f/8 Ritchey-Chretien + CCD.
    C77 Bernezzo Observatory.  Observer A. Mantero.  0.25-m f/4 reflector + CCD.
    C94 MASTER-II Observatory, Tunka.  Observers D. Denisenko, P. Balanutsa,
        E. Gorbovskoy, V. Lipunov, N. Tiurina, K. Ivanov, S. Yazev, N. Budnev,
        E. Konstantinov, V. Poleshchuk, O. Gress.  Measurers D. Denisenko,
        A. Kuznetsov, S. Shurpakov.  0.4-m f/2.5 reflector + CCD.
    J95 Great Shefford.  Observer P. Birtwhistle.  0.40-m f/6.0 Schmidt-Cassegrain
        + CCD.
    
    Orbital elements:
    2013 TV135                                          PHA, Earth MOID = 0.0112 AU
    Epoch 2013 Nov. 4.0 TT = JDT 2456600.5                  MPC
    M  11.41079              (2000.0)            P               Q
    n   0.25479074     Peri.   23.72926     +0.99748222     +0.04719952
    a   2.4642246      Node   333.40054     -0.06717823     +0.86801953
    e   0.5960583      Incl.    6.78881     +0.02272255     +0.49428160
    P   3.87           H   19.6           G   0.15           U   6
    Residuals in seconds of arc
    131008 095  0.8+  0.1+    131015 C32  0.2-  0.3-    131015 J95  0.5+  0.8-
    131008 095  0.7-  0.2-    131015 C32  0.4+  0.5-    131015 C77  0.2+  0.9-
    131012 095  0.2+  0.4-    131015 C32  0.2+  0.2-    131015 C77  0.0   0.9-
    131013 095  1.2-  2.5-    131015 A24  0.6+  0.4-    131015 C77  0.3+  0.8-
    131013 095  1.5+  1.8+    131015 A24  0.5+  0.3-    131015 C77  0.2+  0.6-
    131015 C94  0.4+  1.1-    131015 A24  0.3+  0.3-    131016 B49  1.8+  0.4-
    131015 C94  1.0+  1.6-    131015 J95  0.1-  0.3-    131016 B49  1.0+  0.3-
    131015 C94  0.1+  0.5-    131015 A24  0.3+  0.8-    131016 B49  0.2-  0.1-
    131015 C32  1.0+  0.2-    131015 J95  0.3+  1.0-
    
    Ephemeris:
    2013 TV135               a,e,i = 2.46, 0.60, 7                   q = 0.9954
    Date    TT    R. A. (2000) Decl.     Delta      r     Elong.  Phase     V
    2013 09 16    16 44 21.6 +33 42 29   0.04530 0.9970    78.0    99.4    16.5
    ...
    2013 10 01    07 31 28.7 +80 47 12   0.08477 1.0057    90.6    84.6    17.2
    ...
    2013 10 09    06 07 25.7 +71 21 42   0.1191  1.0261    99.8    73.6    17.6
    ...
    2013 10 15    05 49 07.7 +66 50 56   0.1453  1.0479   106.5    65.8    17.8
    2013 10 16    05 46 46.6 +66 13 37   0.1497  1.0520   107.7    64.6    17.9
    2013 10 17    05 44 31.4 +65 37 59   0.1540  1.0563   108.8    63.3    17.9
    ...
    2013 10 23    05 32 06.1 +62 30 48   0.1801  1.0847   115.5    55.9    18.1
    ...
    2013 10 31    05 16 05.0 +59 01 24   0.2150  1.1289   124.6    46.4    18.3
    ...
    2013 11 15    04 46 40.2 +52 51 14   0.2867  1.2272   141.7    30.0    18.6
    
    A. U. Tomatic                (C) Copyright 2013 MPC           M.P.E.C. 2013-U03
    

    Read MPEC 2013-U02 Read MPEC 2013-U04


    MPEC number:

    Enter an MPEC number in one of the following forms:

    • 1997-B01 (the full form)
    • J97B01 (the packed version of the full form)
    • B01 (the abbreviated form)